Weather History for Mackinac Island, MI

Change the Weather History Date:

Monday, December 26, 2011

  Actual Average Record
Temperature  
Mean Temperature 36 °F -  
Max Temperature 41 °F 26 °F 41 °F (2011)
Min Temperature 31 °F 17 °F -15 °F (1993)
Degree Days  
Heating Degree Days 29    
Moisture  
Dew Point 27 °F    
Average Humidity 68    
Maximum Humidity 81    
Minimum Humidity 53    
Precipitation  
Precipitation 0.00 in - - ()
Sea Level Pressure  
Sea Level Pressure 29.95 in    
Wind  
Wind Speed 8 mph (WSW)    
Max Wind Speed 13 mph    
Max Gust Speed 32 mph    
Visibility 10 miles    
Events      
Averages and records for this station are not official NWS values.
T = Trace of Precipitation, MM = Missing Value Source: NWS Daily Summary

Daily Weather History Graph

Daily Weather History Graph

Search for Another Location

Airport:

Trip Planner

Search our weather history database for the weather conditions in past years. The results will help you decide how hot, cold, wet, or windy it might be!

Date:

Astronomy

Dec. 26, 2011 Rise Set
Actual Time 8:18 AM EST 4:59 PM EST
Civil Twilight 7:44 AM EST 5:33 PM EST
Nautical Twilight 7:06 AM EST 6:11 PM EST
Astronomical Twilight 6:30 AM EST 6:48 PM EST
Moon 9:32 AM EST (12/26) 7:33 PM EST (12/26)
Length of Visible Light 9h 49m
Length of Day
8h 40m
Waxing Crescent, 5% of the Moon is Illuminated
Dec 26
Waxing Crescent
Jan 1
First Quarter
Jan 9
Full
Jan 16
Last Quarter
Jan 23
New

Hourly Weather History & Observations

Time (EST) Temp. Windchill Dew Point Humidity Pressure Visibility Wind Dir Wind Speed Gust Speed Precip Events Conditions
12:15 AM 31.8 °F 23.3 °F 25.3 °F 77% 30.13 in 10.0 mi WNW 10.4 mph 16.1 mph N/A   Overcast
12:36 AM 32.0 °F 23.6 °F 24.6 °F 74% 30.13 in 10.0 mi WNW 10.4 mph 17.3 mph N/A   Overcast
12:55 AM 32.0 °F 25.6 °F 23.9 °F 72% 30.13 in 10.0 mi WNW 6.9 mph - N/A   Overcast
1:15 AM 32.0 °F 25.6 °F 24.1 °F 73% 30.12 in 10.0 mi WNW 6.9 mph - N/A   Overcast
1:36 AM 32.0 °F 24.2 °F 23.2 °F 70% 30.12 in 10.0 mi WNW 9.2 mph - N/A   Overcast
1:55 AM 32.0 °F 25.6 °F 23.0 °F 69% 30.12 in 10.0 mi WNW 6.9 mph - N/A   Overcast
2:15 AM 32.0 °F 27.5 °F 23.5 °F 71% 30.13 in 10.0 mi WNW 4.6 mph - N/A   Overcast
2:36 AM 32.0 °F 24.8 °F 23.5 °F 71% 30.12 in 10.0 mi WNW 8.1 mph - N/A   Overcast
2:55 AM 32.0 °F 26.4 °F 23.9 °F 72% 30.14 in 10.0 mi WNW 5.8 mph - N/A   Overcast
3:36 AM 32.2 °F - 24.6 °F 74% 30.13 in 10.0 mi Calm Calm - N/A   Overcast
3:55 AM 32.4 °F 25.3 °F 24.4 °F 73% 30.13 in 10.0 mi West 8.1 mph - N/A   Overcast
4:15 AM 32.5 °F 25.5 °F 24.1 °F 71% 30.13 in 10.0 mi West 8.1 mph 17.3 mph N/A   Overcast
4:36 AM 32.9 °F 27.5 °F 25.3 °F 74% 30.12 in 10.0 mi West 5.8 mph - N/A   Overcast
4:55 AM 32.9 °F 25.9 °F 24.6 °F 72% 30.10 in 10.0 mi West 8.1 mph - N/A   Overcast
5:15 AM 32.9 °F 27.5 °F 26.2 °F 76% 30.10 in 10.0 mi WSW 5.8 mph - N/A   Overcast
5:36 AM 33.3 °F 27.9 °F 26.6 °F 77% 30.10 in 10.0 mi WSW 5.8 mph - N/A   Overcast
5:55 AM 33.6 °F 28.4 °F 27.3 °F 78% 30.10 in 10.0 mi WSW 5.8 mph - N/A   Overcast
6:15 AM 34.0 °F 26.0 °F 27.5 °F 77% 30.10 in 10.0 mi WSW 10.4 mph 17.3 mph N/A   Overcast
6:35 AM 34.7 °F 29.6 °F 27.9 °F 76% 30.10 in 10.0 mi WSW 5.8 mph - N/A   Overcast
6:55 AM 34.7 °F 29.6 °F 29.3 °F 81% 30.09 in 10.0 mi WSW 5.8 mph - N/A   Overcast
7:15 AM 35.1 °F 29.3 °F 27.9 °F 75% 30.08 in 10.0 mi SW 6.9 mph 18.4 mph N/A   Overcast
7:36 AM 35.2 °F 28.8 °F 27.5 °F 73% 30.08 in 10.0 mi SW 8.1 mph - N/A   Overcast
7:55 AM 35.6 °F 29.2 °F 27.5 °F 72% 30.07 in 10.0 mi SW 8.1 mph 21.9 mph N/A   Overcast
8:15 AM 35.6 °F 28.6 °F 28.2 °F 75% 30.06 in 10.0 mi SW 9.2 mph 21.9 mph N/A   Overcast
8:35 AM 35.6 °F 31.7 °F 28.2 °F 75% 30.06 in 10.0 mi SW 4.6 mph - N/A   Overcast
9:15 AM 35.6 °F 28.6 °F 28.9 °F 77% 30.05 in 10.0 mi SW 9.2 mph - N/A   Overcast
10:15 AM 36.1 °F 30.6 °F 29.1 °F 76% 30.02 in 10.0 mi SW 6.9 mph - N/A   Mostly Cloudy
10:35 AM 36.7 °F 29.9 °F 29.3 °F 75% 30.02 in 10.0 mi SW 9.2 mph 16.1 mph N/A   Mostly Cloudy
10:55 AM 36.5 °F 28.7 °F 29.3 °F 75% 30.01 in 10.0 mi WSW 11.5 mph 18.4 mph N/A   Scattered Clouds
11:15 AM 36.1 °F 29.3 °F 29.3 °F 76% 30.01 in 10.0 mi WSW 9.2 mph 21.9 mph N/A   Scattered Clouds
11:36 AM 36.9 °F 30.1 °F 30.0 °F 76% 30.00 in 10.0 mi WSW 9.2 mph 17.3 mph N/A   Mostly Cloudy
11:55 AM 37.6 °F 30.0 °F 30.7 °F 76% 29.98 in 10.0 mi WSW 11.5 mph 23.0 mph N/A   Mostly Cloudy
12:15 PM 37.9 °F 30.5 °F 30.9 °F 76% 29.97 in 10.0 mi WSW 11.5 mph 19.6 mph N/A   Overcast
12:35 PM 38.3 °F 32.5 °F 31.1 °F 75% 29.96 in 10.0 mi WSW 8.1 mph 25.3 mph N/A   Overcast
12:55 PM 38.1 °F 31.7 °F 31.1 °F 76% 29.94 in 10.0 mi SW 9.2 mph 24.2 mph N/A   Overcast
1:15 PM 38.8 °F 33.8 °F 31.5 °F 75% 29.92 in 10.0 mi SW 6.9 mph 21.9 mph N/A   Overcast
1:35 PM 38.8 °F 32.1 °F 31.3 °F 74% 29.91 in 10.0 mi WSW 10.4 mph 24.2 mph N/A   Mostly Cloudy
1:55 PM 39.6 °F 34.7 °F 30.6 °F 70% 29.89 in 10.0 mi WSW 6.9 mph 16.1 mph N/A   Scattered Clouds
2:16 PM 40.1 °F 34.7 °F 29.7 °F 66% 29.86 in 10.0 mi SW 8.1 mph 16.1 mph N/A   Clear
2:35 PM 39.4 °F 34.5 °F 28.8 °F 66% 29.86 in 10.0 mi SW 6.9 mph - N/A   Clear
2:55 PM 41.0 °F 35.2 °F 28.4 °F 61% 29.84 in 10.0 mi SW 9.2 mph 18.4 mph N/A   Clear
3:15 PM 41.0 °F 34.7 °F 28.4 °F 61% 29.83 in 10.0 mi SW 10.4 mph - N/A   Clear
3:35 PM 40.6 °F 35.4 °F 28.4 °F 62% 29.82 in 10.0 mi SSW 8.1 mph - N/A   Clear
3:55 PM 41.0 °F 34.7 °F 27.5 °F 59% 29.81 in 10.0 mi SSW 10.4 mph 16.1 mph N/A   Clear
4:16 PM 41.0 °F 34.7 °F 27.5 °F 59% 29.80 in 10.0 mi SSW 10.4 mph 16.1 mph N/A   Clear
4:35 PM 41.5 °F 37.1 °F 27.3 °F 57% 29.80 in 10.0 mi SSW 6.9 mph 18.4 mph N/A   Clear
4:55 PM 41.4 °F 36.2 °F 26.4 °F 55% 29.80 in 10.0 mi SSW 8.1 mph - N/A   Clear
5:15 PM 41.9 °F 36.9 °F 26.1 °F 53% 29.79 in 10.0 mi SW 8.1 mph 20.7 mph N/A   Clear
5:35 PM 41.5 °F 35.9 °F 26.2 °F 55% 29.78 in 10.0 mi SW 9.2 mph 19.6 mph N/A   Clear
5:55 PM 41.4 °F 34.7 °F 25.5 °F 53% 29.77 in 10.0 mi SW 11.5 mph 18.4 mph N/A   Clear
6:35 PM 40.6 °F 33.8 °F 25.7 °F 55% 29.73 in 10.0 mi SSW 11.5 mph 24.2 mph N/A   Clear
6:55 PM 40.3 °F 33.0 °F 25.7 °F 56% 29.72 in 10.0 mi SSW 12.7 mph 21.9 mph N/A   Clear
7:16 PM 40.5 °F 33.6 °F 25.5 °F 55% 29.71 in 10.0 mi SW 11.5 mph 23.0 mph N/A   Clear
7:35 PM 40.1 °F 33.6 °F 26.1 °F 57% 29.72 in 10.0 mi SW 10.4 mph 20.7 mph N/A   Clear
7:55 PM 40.3 °F 34.4 °F 25.5 °F 56% 29.71 in 10.0 mi SSW 9.2 mph 23.0 mph N/A   Clear
8:15 PM 40.3 °F 33.9 °F 25.5 °F 56% 29.72 in 10.0 mi SW 10.4 mph 25.3 mph N/A   Clear
8:35 PM 40.3 °F 34.4 °F 25.9 °F 56% 29.71 in 10.0 mi SW 9.2 mph 32.2 mph N/A   Clear
8:55 PM 40.1 °F 33.2 °F 26.2 °F 58% 29.70 in 10.0 mi SW 11.5 mph 27.6 mph N/A   Clear
9:15 PM 40.1 °F 33.6 °F 26.4 °F 58% 29.68 in 10.0 mi SW 10.4 mph 25.3 mph N/A   Clear
9:35 PM 40.1 °F 33.6 °F 26.6 °F 59% 29.67 in 10.0 mi SW 10.4 mph 25.3 mph N/A   Clear
9:55 PM 40.1 °F 32.7 °F 27.0 °F 59% 29.66 in 10.0 mi SW 12.7 mph 28.8 mph N/A   Clear
10:15 PM 40.1 °F 33.2 °F 27.5 °F 61% 29.65 in 10.0 mi SW 11.5 mph 23.0 mph N/A   Clear
10:35 PM 39.7 °F 31.9 °F 28.4 °F 64% 29.65 in 10.0 mi WSW 13.8 mph 29.9 mph N/A   Clear
10:55 PM 39.4 °F 31.8 °F 28.8 °F 66% 29.65 in 10.0 mi SW 12.7 mph 24.2 mph N/A   Clear
11:36 PM 39.4 °F 32.3 °F 29.7 °F 68% 29.63 in 10.0 mi SW 11.5 mph 21.9 mph N/A   Scattered Clouds